Weather History for Hallock, MN

Change the Weather History Date:

Tuesday, January 29, 2013

  Actual Average Record
Temperature  
Mean Temperature 14 °F -  
Max Temperature 21 °F 13 °F 37 °F (1941)
Min Temperature 8 °F -8 °F -42 °F (1966)
Degree Days  
Heating Degree Days 50    
Moisture  
Dew Point 15 °F    
Average Humidity 91    
Maximum Humidity 100    
Minimum Humidity 79    
Precipitation  
Precipitation 0.00 in - - ()
Sea Level Pressure  
Sea Level Pressure 29.80 in    
Wind  
Wind Speed 9 mph (NNW)    
Max Wind Speed 21 mph    
Max Gust Speed 26 mph    
Visibility 5 miles    
Events Fog , Snow    
Averages and records for this station are not official NWS values.
T = Trace of Precipitation, MM = Missing Value Source: NWS Daily Summary

Daily Weather History Graph

Daily Weather History Graph

Search for Another Location

Airport:

Trip Planner

Search our weather history database for the weather conditions in past years. The results will help you decide how hot, cold, wet, or windy it might be!

Date:

Astronomy

Jan. 29, 2013 Rise Set
Actual Time 8:01 AM CST 5:21 PM CST
Civil Twilight 7:26 AM CST 5:55 PM CST
Nautical Twilight 6:48 AM CST 6:33 PM CST
Astronomical Twilight 6:11 AM CST 7:10 PM CST
Moon 8:39 PM CST (1/29) 8:41 AM CST (1/29)
Length of Visible Light 10h 28m
Length of Day
9h 20m
Waning Gibbous, 93% of the Moon is Illuminated
Jan 29
Waning Gibbous
Feb 3
Last Quarter
Feb 10
New
Feb 17
First Quarter
Feb 25
Full

Hourly Weather History & Observations

Time (CST) Temp. Windchill Dew Point Humidity Pressure Visibility Wind Dir Wind Speed Gust Speed Precip Events Conditions
12:14 AM 17.6 °F - 15.8 °F 93% 29.75 in 3.0 mi Calm Calm - N/A   Overcast
12:34 AM 17.6 °F 12.3 °F 17.6 °F 100% 29.74 in 3.0 mi NW 3.5 mph - N/A   Overcast
12:54 AM 17.6 °F - 17.6 °F 100% 29.73 in 0.8 mi Calm Calm - N/A   Overcast
1:14 AM 19.4 °F 12.8 °F 17.6 °F 93% 29.72 in 0.5 mi NNW 4.6 mph - N/A Fog Light Freezing Fog
1:34 AM 19.4 °F 12.8 °F 17.6 °F 93% 29.71 in 1.5 mi NNW 4.6 mph - N/A   Overcast
1:54 AM 19.4 °F 11.5 °F 19.4 °F 100% 29.70 in 0.2 mi NNW 5.8 mph - N/A Fog Light Freezing Fog
2:14 AM 21.2 °F 13.6 °F 19.4 °F 93% 29.69 in 0.5 mi NNW 5.8 mph - N/A Fog Light Freezing Fog
2:34 AM 21.2 °F 14.9 °F 19.4 °F 93% 29.69 in 0.8 mi NNW 4.6 mph - N/A   Overcast
2:54 AM 21.2 °F 12.6 °F 19.4 °F 93% 29.69 in 4.0 mi North 6.9 mph - N/A   Overcast
3:14 AM 19.4 °F 12.8 °F 19.4 °F 100% 29.70 in 5.0 mi NNW 4.6 mph - N/A   Mostly Cloudy
3:34 AM 19.4 °F 11.5 °F 17.6 °F 93% 29.69 in 7.0 mi NNW 5.8 mph - N/A   Overcast
4:14 AM 19.4 °F 11.5 °F 17.6 °F 93% 29.70 in 7.0 mi NW 5.8 mph - N/A   Overcast
4:34 AM 19.4 °F 11.5 °F 17.6 °F 93% 29.70 in 7.0 mi NNW 5.8 mph - N/A   Overcast
4:54 AM 19.4 °F 10.4 °F 17.6 °F 93% 29.70 in 7.0 mi NW 6.9 mph - N/A   Overcast
5:14 AM 19.4 °F 11.5 °F 17.6 °F 93% 29.70 in 7.0 mi NNW 5.8 mph - N/A   Overcast
5:34 AM 19.4 °F 11.5 °F 17.6 °F 93% 29.70 in 7.0 mi NNW 5.8 mph - N/A   Overcast
5:54 AM 19.4 °F 10.4 °F 17.6 °F 93% 29.70 in 7.0 mi NNW 6.9 mph - N/A   Overcast
6:14 AM 19.4 °F 11.5 °F 17.6 °F 93% 29.70 in 7.0 mi NNW 5.8 mph - N/A   Overcast
6:34 AM 19.4 °F 8.6 °F 17.6 °F 93% 29.70 in 7.0 mi NNW 9.2 mph - N/A   Overcast
6:53 AM 19.4 °F 8.6 °F 17.6 °F 93% 29.70 in 5.0 mi NNW 9.2 mph - N/A   Overcast
7:14 AM 19.4 °F 7.9 °F 19.4 °F 100% 29.71 in 5.0 mi NNW 10.4 mph - N/A   Overcast
7:34 AM 19.4 °F 7.9 °F 19.4 °F 100% 29.71 in 5.0 mi NNW 10.4 mph - N/A   Overcast
7:54 AM 19.4 °F 7.2 °F 19.4 °F 100% 29.72 in 4.0 mi NNW 11.5 mph - N/A   Overcast
8:14 AM 19.4 °F 8.6 °F 19.4 °F 100% 29.73 in 2.5 mi NNW 9.2 mph - N/A   Overcast
8:34 AM 19.4 °F 7.2 °F 19.4 °F 100% 29.74 in 2.0 mi NNW 11.5 mph - N/A   Overcast
8:53 AM 19.4 °F 7.2 °F 19.4 °F 100% 29.74 in 2.5 mi NNW 11.5 mph - N/A   Overcast
9:14 AM 19.4 °F 6.6 °F 17.6 °F 93% 29.74 in 4.0 mi NNW 12.7 mph - N/A   Overcast
9:34 AM 19.4 °F 6.0 °F 19.4 °F 100% 29.74 in 4.0 mi NNW 13.8 mph - N/A   Overcast
9:54 AM 19.4 °F 5.5 °F 19.4 °F 100% 29.75 in 4.0 mi NNW 15.0 mph - N/A   Overcast
10:14 AM 19.4 °F 6.0 °F 19.4 °F 100% 29.76 in 4.0 mi NNW 13.8 mph - N/A   Overcast
10:34 AM 19.4 °F 7.2 °F 19.4 °F 100% 29.77 in 4.0 mi NNW 11.5 mph - N/A   Overcast
10:53 AM 21.2 °F 8.9 °F 19.4 °F 93% 29.78 in 3.0 mi NNW 12.7 mph - N/A   Overcast
11:14 AM 19.4 °F 5.5 °F 17.6 °F 93% 29.79 in 3.0 mi NNW 15.0 mph - N/A Snow Light Snow
11:34 AM 19.4 °F 6.0 °F 17.6 °F 93% 29.79 in 4.0 mi NNW 13.8 mph - N/A Snow Light Snow
11:53 AM 19.4 °F 5.5 °F 17.6 °F 93% 29.79 in 5.0 mi NNW 15.0 mph - N/A Snow Light Snow
12:14 PM 19.4 °F 7.2 °F 17.6 °F 93% 29.79 in 5.0 mi NNW 11.5 mph - N/A Snow Light Snow
12:34 PM 19.4 °F 5.5 °F 17.6 °F 93% 29.79 in 7.0 mi NNW 15.0 mph 20.7 mph N/A Snow Light Snow
12:54 PM 19.4 °F 5.0 °F 17.6 °F 93% 29.79 in 7.0 mi NNW 16.1 mph - N/A Snow Light Snow
1:14 PM 19.4 °F 5.0 °F 15.8 °F 86% 29.80 in 7.0 mi NNW 16.1 mph - N/A   Overcast
1:34 PM 19.4 °F 4.5 °F 15.8 °F 86% 29.80 in 5.0 mi NNW 17.3 mph 21.9 mph N/A Snow Light Snow
1:54 PM 17.6 °F 2.2 °F 15.8 °F 93% 29.80 in 5.0 mi NNW 17.3 mph - N/A   Overcast
2:14 PM 17.6 °F 2.2 °F 15.8 °F 93% 29.81 in 7.0 mi NNW 17.3 mph - N/A   Overcast
2:34 PM 17.6 °F 2.7 °F 15.8 °F 93% 29.81 in 7.0 mi NNW 16.1 mph 21.9 mph N/A   Overcast
2:54 PM 17.6 °F 3.2 °F 14.0 °F 86% 29.82 in 7.0 mi NNW 15.0 mph 20.7 mph N/A Snow Light Snow
3:14 PM 17.6 °F 2.2 °F 14.0 °F 86% 29.82 in 5.0 mi North 17.3 mph - N/A Snow Light Snow
3:53 PM 15.8 °F 2.1 °F 12.2 °F 86% 29.84 in 7.0 mi NNW 12.7 mph 21.9 mph N/A   Overcast
4:14 PM 15.8 °F -0.2 °F 12.2 °F 86% 29.85 in 5.0 mi NNW 17.3 mph - N/A   Overcast
4:34 PM 15.8 °F -1.5 °F 10.4 °F 79% 29.85 in 4.0 mi NNW 20.7 mph 24.2 mph N/A Snow Light Snow
4:54 PM 14.0 °F -3.0 °F 10.4 °F 86% 29.87 in 5.0 mi NNW 18.4 mph 23.0 mph N/A   Overcast
5:14 PM 14.0 °F -2.5 °F 10.4 °F 86% 29.88 in 7.0 mi NNW 17.3 mph - N/A   Overcast
5:34 PM 14.0 °F -3.4 °F 10.4 °F 86% 29.88 in 5.0 mi NNW 19.6 mph - N/A Snow Light Snow
5:54 PM 14.0 °F -2.5 °F 10.4 °F 86% 29.89 in 5.0 mi NNW 17.3 mph 24.2 mph N/A Snow Light Snow
6:14 PM 14.0 °F -3.0 °F 10.4 °F 86% 29.89 in 7.0 mi NNW 18.4 mph 24.2 mph N/A Snow Light Snow
6:34 PM 14.0 °F -3.4 °F 10.4 °F 86% 29.90 in 5.0 mi NNW 19.6 mph 24.2 mph N/A   Overcast
6:54 PM 12.2 °F -3.1 °F 10.4 °F 92% 29.91 in 7.0 mi NNW 13.8 mph 24.2 mph N/A   Overcast
7:13 PM 12.2 °F -4.3 °F 8.6 °F 85% 29.91 in 10.0 mi NNW 16.1 mph 25.3 mph N/A   Overcast
7:34 PM 12.2 °F -5.8 °F 8.6 °F 85% 29.91 in 7.0 mi NNW 19.6 mph 24.2 mph N/A   Overcast
7:54 PM 12.2 °F -4.8 °F 8.6 °F 85% 29.92 in 7.0 mi NNW 17.3 mph - N/A   Overcast
8:13 PM 12.2 °F -6.3 °F 8.6 °F 85% 29.92 in 5.0 mi NNW 20.7 mph 26.5 mph N/A Snow Light Snow
8:34 PM 12.2 °F -5.8 °F 8.6 °F 85% 29.93 in 7.0 mi NNW 19.6 mph 25.3 mph N/A   Overcast
8:54 PM 12.2 °F -4.3 °F 8.6 °F 85% 29.95 in 10.0 mi NNW 16.1 mph 21.9 mph N/A   Overcast
9:13 PM 12.2 °F -4.3 °F 8.6 °F 85% 29.96 in 10.0 mi NNW 16.1 mph - N/A   Overcast
9:34 PM 10.4 °F -7.2 °F 6.8 °F 85% 29.96 in 7.0 mi NNW 17.3 mph 24.2 mph N/A Snow Light Snow
9:54 PM 10.4 °F -7.2 °F 8.6 °F 92% 29.96 in 5.0 mi NNW 17.3 mph - N/A Snow Light Snow
10:13 PM 10.4 °F -6.0 °F 6.8 °F 85% 29.96 in 5.0 mi NNW 15.0 mph - N/A Snow Light Snow
10:34 PM 10.4 °F -6.6 °F 6.8 °F 85% 29.96 in 5.0 mi NNW 16.1 mph 23.0 mph N/A Snow Light Snow
10:54 PM 10.4 °F -7.2 °F 6.8 °F 85% 29.96 in 4.0 mi NNW 17.3 mph 21.9 mph N/A Snow Light Snow
11:14 PM 8.6 °F -9.5 °F 6.8 °F 92% 29.95 in 5.0 mi North 17.3 mph - N/A Snow Light Snow
11:34 PM 8.6 °F -10.0 °F 5.0 °F 85% 29.95 in 5.0 mi North 18.4 mph 25.3 mph N/A Snow Light Snow
11:54 PM 8.6 °F -10.5 °F 3.2 °F 79% 29.95 in 5.0 mi NNW 19.6 mph 25.3 mph N/A Snow Light Snow